www.pogodaiklimat.ru

Погода и климат >> Архив погоды >> Россия >> Якутия >> Теплый Ключ


ПОГОДА в Теплом Ключе

  • Прогноз погоды в Теплом Ключе
  • Монитор погоды в Теплом Ключе
  • Климат города

АРХИВ ПОГОДЫ в Теплом Ключе

Время (UTC), дата Ветер
(напр.,м/с)
 
Видим.   Явления Облачность Т
(С)
Тd
(С)
f
(%)
Тe
(С)
Тes
(С)
Комфортность P
(гПа)
Po
(гПа)
Тmin
(С)
Tmax
(С)
R
(мм)
R24
(мм)
S
(см)
09 19.09 СЗ 2 50 км 8/8 1200 м
[Sc diur, vesp]
+12.0 -0.5 42 +11 +11 1006.0 971.9 +14.5
12 19.09 Ю 1 н/о н/о +7.5 0.0 59 +7 +7 1006.9 972.3
15 19.09 ЮВ 1 н/о н/о -1.4 -2.9 90 -4 -4 1008.8 973.0
18 19.09 штиль 0 н/о н/о -0.6 -1.6 93 -2 -2 1009.6 973.8
21 19.09 В 1 50 км 10/10 1500 м
[Sc]
+0.2 -1.2 90 -2 -2 1010.1 974.5 -2.9
00 20.09 штиль 0 50 км 9/9 1500 м
[Sc]
+3.8 +0.1 77 +3 +3 1010.7 975.5 +0.3
03 20.09 штиль 0 50 км 9/9 1500 м
[Sc]
+6.2 0.0 64 +6 +6 1010.8 975.9
06 20.09 ЮВ 2 50 км 9/9 1500 м
[Sc]
+7.6 +0.9 62 +6 +6 1011.3 976.5
09 20.09 штиль 0 50 км 9/8 900 м
[Sc Ac cast]
+5.5 +0.6 71 +5 +5 1012.7 977.6 +7.7
12 20.09 СЗ 1 н/о н/о +2.8 +0.7 86 +1 +1 1013.8 978.4
15 20.09 СВ 1 н/о н/о +0.7 -0.3 93 -1 -1 1014.2 978.5
18 20.09 В 1 н/о н/о 0.0 -0.5 96 -2 -2 1014.7 978.9
21 20.09 штиль 0 50 км 9/0 2000 м
[Ac lent]
-0.3 -0.7 97 -2 -2 1015.4 979.5 -0.4
00 21.09 штиль 0 50 км 5/0 2000 м
[Ac lent Ci fib]
+5.4 +0.5 71 +5 +7 1015.1 980.0 -0.5
03 21.09 З 2 50 км 3/3 1000 м
[Cu hum]
+10.6 -0.7 45 +10 +13 1014.2 979.7
06 21.09 СЗ 3 50 км 4/4 1000 м
[Cu hum]
+10.9 -3.9 35 +10 +11 1014.4 980.0
09 21.09 штиль 0 50 км 4/3 1000 м
[Sc Ci fib]
+6.3 -1.5 57 +6 +6 1015.9 980.8 +11.3
12 21.09 В 1 н/о н/о -1.7 -3.0 91 -4 -4 1017.7 981.5
15 21.09 СВ 1 н/о н/о -2.1 -3.2 92 -4 -4 1018.0 981.8
18 21.09 СВ 1 н/о н/о -1.4 -2.5 92 -4 -4 1018.1 982.0
21 21.09 штиль 0 50 км 9/9 1230 м
[Sc]
-1.0 -2.2 92 -2 -2 1018.6 982.6 -3.4
00 22.09 Ю 1 н/о н/о +2.4 -0.8 79 +1 +1 1019.3 983.6
03 22.09 ЮЗ 2 н/о н/о +7.6 -0.1 58 +6 +6 1017.7 982.7
06 22.09 ЮЗ 3 н/о н/о +8.5 -1.8 48 +6 +6 1016.3 981.5
09 22.09 ЮЗ 1 н/о н/о +5.5 -2.8 55 +5 +5 1016.5 981.3 +9.1
12 22.09 З 5 н/о н/о +4.5 -0.2 72 -0 -0 1017.0 981.7
15 22.09 Ю 2 н/о н/о +2.9 +2.2 95 -0 -0 1015.5 980.0
18 22.09 ЮЗ 1 н/о н/о +3.1 +2.2 94 +1 +1 1013.8 978.4
21 22.09 З 1 10 км слабый ливневой дождь 10/10 200 м
[Cb calv]
+2.6 +1.8 94 +1 +1 1013.3 977.8 +2.6 5
00 23.09 ЮЗ 1 н/о н/о +3.4 +3.0 97 +2 +2 1012.1 976.8 +2.0
03 23.09 ЮЗ 2 н/о н/о +3.6 +2.2 91 +1 +1 1011.7 976.4
06 23.09 Ю 1 н/о н/о +2.6 +1.9 95 +1 +1 1011.7 976.4
09 23.09 штиль 0 н/о н/о +2.4 +1.7 95 +1 +1 1012.0 976.6 +3.9
12 23.09 З 2 н/о н/о -0.3 -0.5 99 -4 -4 1013.2 977.4
15 23.09 З 1 н/о н/о +0.2 0.0 99 -2 -2 1013.5 977.8
18 23.09 З 1 н/о н/о -0.3 -0.5 99 -3 -3 1013.9 978.1
21 23.09 штиль 0 50 м туман ясно -1.5 -1.7 99 -3 -3 1015.0 978.9 -1.6 0.8
00 24.09 СЗ 1 200 м туман ?/? -0.2 -0.5 98 -2 -2 1015.8 980.3
03 24.09 З 2 10 км {туман} 10/10 270 м
[St]
+1.6 +1.3 98 -2 -2 1016.7 980.9
06 24.09 Ю 2 10 км {туман} 8/8 400 м
[Sc diur, vesp]
+3.4 +0.5 81 +1 +1 1016.4 980.9
09 24.09 штиль 0 50 км 4/0
[Ci fib]
0.0 -1.2 92 -1 -1 1017.5 981.6 +4.2
12 24.09 В 1 н/о н/о -2.3 -2.4 99 -5 -5 1018.4 982.1
15 24.09 В 2 н/о н/о -2.9 -3.2 98 -7 -7 1018.7 982.4
18 24.09 ЮВ 1 н/о н/о -1.4 -2.1 95 -4 -4 1018.3 982.2
21 24.09 В 2 20 км 10/0
[As op]
-0.1 -0.8 95 -4 -4 1018.0 982.0 -3.0
00 25.09 В 1 50 км 10/0 2000 м
[As op]
+1.1 0.0 92 -1 -1 1018.4 982.6
03 25.09 Ю 2 50 км 10/0 2000 м
[As op]
+4.2 -0.6 71 +2 +2 1017.9 982.5
06 25.09 штиль 0 20 км 10/0 2000 м
[As op]
+4.3 -1.1 68 +4 +4 1017.1 981.7
09 25.09 ЮВ 2 20 км 10/0 2000 м
[As op]
+3.5 +0.9 83 +1 +1 1017.2 981.7 +4.5
12 25.09 В 2 н/о н/о +2.9 +0.7 85 -0 -0 1017.0 981.5
15 25.09 В 2 н/о н/о +3.1 +0.4 82 0 0 1016.4 980.9
18 25.09 В 2 н/о н/о +2.9 +0.2 82 -0 -0 1015.4 979.9
21 25.09 ЮВ 1 20 км 10/0 2000 м
[As op]
+2.8 +0.7 86 +1 +1 1014.8 979.3 +2.1
00 26.09 ЮВ 1 50 км 9/0 2000 м
[Ac As]
+6.0 +1.8 74 +5 +6 1014.3 979.2
03 26.09 штиль 0 50 км 8/0 2000 м
[Ac trans]
+11.0 -0.1 46 +11 +13 1011.8 977.5

 

Местоположение метеостанции Теплый Ключ (Якутия, Россия): широта 62.78 долгота 136.80 высота над уровнем моря 289 м.

В архиве по умолчанию представлена погода в Теплом Ключе за последнюю неделю. Архивные данные за месяц целиком и за предыдущие месяцы, начиная с января 2011 года, Вы можете получить, выбрав интересующий диапазон дат из раскрывающегося списка и нажав кнопку "Ввод!".


*Определитесь, кто Вы:
робот инопланетянин человек

Внимание! Время в таблицах - всемирное. Для получения местного времени необходимо прибавить поправку, которая в Теплом Ключе равна 9 ч.

Смотрите также архив погоды в соседних городах и на ближайших метеорологических станциях:

Погода в Охотском Перевозе (Якутия, Россия) (121 км)
Погода в Крест-Хальджае (Якутия, Россия) (122 км)
Погода в Томпо (Якутия, Россия) (139 км)
Погода в Восточной (Якутия, Россия) (150 км)
Погода в Ытык-Кюёле (Якутия, Россия) (175 км)
Погода в Чурапче (Якутия, Россия) (232 км)
Погода в Верхоянском Перевозе (Якутия, Россия) (249 км)
Погода в Агаякане (Якутия, Россия) (254 км)
Погода в Иэме (Якутия, Россия) (284 км)
Погода в Юртах (Якутия, Россия) (286 км)

Пояснения к столбцам:

Ветер - указаны скорость ветра в м/с - средняя за 10 мин, порывы в срок и между сроками (в фигурных скобках) и направление, откуда дует ветер: С - северный, СВ - северо-восточный, В - восточный, ЮВ - юго-восточный, Ю - южный, ЮЗ - юго-западный, З - западный, СЗ - северо-западный.
Видимость - горизонтальная дальность видимости в метрах или километрах. При видимости от 1 до 10 км при отсутствии осадков обычно наблюдается дымка, при ухудшении видимости до 1 км и менее - туман. В сухую погоду видимость может ухудшаться дымом, пылью или мглою.
Явления - указаны атмосферные явления, наблюдавшиеся в срок или в последний час перед сроком; фигурными скобками обозначены явления, наблюдавшиеся между сроками (за 1-3 часа до срока); квадратными скобками обозначены град или гололедные отложения с указанием их диаметра в мм.
Облачность - указаны через наклонную черту общая и нижняя облачность в баллах и высота нижней границы облаков в метрах; квадратными скобками обозначены формы облаков: Ci - перистые, Cs - перисто-слоистые, Cc - перисто-кучевые, Ac - высококучевые, As - высокослоистые, Sc - слоисто-кучевые, Ns - слоисто-дождевые, Cu - кучевые, Cb - кучево-дождевые. Подробнее классификацию облаков см. в Атласе облаков (PDF).
T - Температура воздуха - температура, измеренная на высоте 2 м над землей.
Td - Температура точки росы - температура, при понижении до которой содержащийся в воздухе водяной пар достигнет насыщения.
f - Относительная влажность воздуха - влажноcть воздуха, измеренная на высоте 2 м над землей.
Te - Эффективная температура - температура, которую ощущает одетый по сезону человек в тени. Характеристика душности погоды. При расчете учитывается влияние влажности воздуха и скорости ветра на теплоощущения человека.
Tes - Эффективная температура на солнце - температура, которую ощущает человек, с поправкой на солнечный нагрев. Характеристика знойности погоды. Зависит от высоты солнца над горизонтом, облачности и скорости ветра. Ночью, в пасмурную погоду, а также при ветре 12 м/с и более поправка равна нулю.
P - Атмосферное давление - приведенное к уровню моря атмосферное давление.
Po - Атмосферное давление - измеренное на уровне метеостанции атмосферное давление.
Tmin - Минимальная температура - минимум температуры воздуха на высоте 2 м над землей.
Tmax - Максимальная температура - максимум температуры воздуха на высоте 2 м над землей.
R - Количество осадков - Количество выпавших осадков за период времени, мм. При наведении курсора мыши на число - период времени, за который выпало указанное количество осадков.
R24 - Количество осадков - Количество выпавших осадков за 24 часа, мм.
S - Снежный покров - Высота снежного покрова, см. При наведении курсора мыши на число - состояние снежного покрова и степень покрытия местности в баллах.